User: anonymous   Login
Location: Muenchen
(48.1800°N, 11.5800°E)
Time: 10:33:08
(UTC+02:00)
Language:

Sich 1 Rocket - Orbit

View from above orbital plane
View from above orbital plane
View from above satellite
View from above satellite

Ground track
Ground track

The orbit data is extracted from the following two-line orbital elements,

1 23659U 95046C   16124.75477457  .00000132  00000-0  14922-4 0  9997
2 23659  82.5288 325.3357 0026901 131.0385 291.6516 14.78180034114065
Epoch (UTC): 03 May 2016 18:06:52
Eccentricity: 0.0026901
inclination: 82.5288°
perigee height: 616 km
apogee height: 654 km
right ascension of ascending node: 325.3357°
argument of perigee: 131.0385°
revolutions per day: 14.78180034
mean anomaly at epoch: 291.6516°
orbit number at epoch: 11406

The dashed part of the orbit path shows where the satellite is in the earth's shadow,  

DLR